CDT,Max TemperatureF,Mean TemperatureF,Min TemperatureF,Max Dew PointF,MeanDew PointF,Min DewpointF,Max Humidity, Mean Humidity, Min Humidity, Max Sea Level PressureIn, Mean Sea Level PressureIn, Min Sea Level PressureIn, Max VisibilityMiles, Mean VisibilityMiles, Min VisibilityMiles, Max Wind SpeedMPH, Mean Wind SpeedMPH, Max Gust SpeedMPH,PrecipitationIn, CloudCover, Events, WindDirDegrees
2013-3-1,39,34,30,28,28,28,93,85,65,30.32,30.25,30.22,10,10,10,12,5,16,0.00,0,,351
2013-3-2,33,30,26,30,25,21,93,81,65,30.42,30.33,30.22,10,10,10,12,5,,0.00,0,,339
2013-3-3,59,44,28,37,30,27,100,86,42,30.21,30.09,29.71,10,10,10,12,1,20,0.00,1,,158
2013-3-4,78,62,46,43,41,37,81,52,28,29.89,29.67,29.59,10,10,10,33,12,44,0.00,0,,207
2013-3-5,53,44,35,37,30,19,76,62,30,30.38,30.18,29.90,10,10,10,37,23,52,0.00,1,,355
2013-3-6,60,43,26,28,24,21,93,65,22,30.47,30.36,30.20,10,10,10,9,3,,0.00,0,,353
2013-3-7,71,52,32,34,28,25,87,64,20,30.23,30.17,30.10,10,10,10,17,2,23,0.00,0,,135
2013-3-8,60,55,50,54,43,34,88,65,50,30.17,30.08,29.96,10,10,10,13,7,20,0.00,4,,126
2013-3-9,62,58,53,63,55,54,100,86,77,29.95,29.86,29.70,10,9,2,16,12,22,0.00,7,,149
2013-3-10,53,43,33,54,46,30,100,90,76,30.09,29.81,29.68,10,10,7,26,6,32,0.00,2,Rain,280
2013-3-11,59,44,28,32,29,21,100,84,27,30.09,30.06,29.99,10,10,10,8,4,,0.00,0,,302
2013-3-12,62,46,30,39,32,30,100,91,37,30.34,30.10,30.02,10,10,10,7,1,,0.00,0,,4
2013-3-13,55,44,33,37,32,27,87,76,44,30.44,30.37,30.32,10,10,10,9,3,,0.00,0,,44
2013-3-14,60,48,35,45,34,32,87,75,55,30.33,30.30,30.15,10,10,10,5,1,,0.00,0,,118
2013-3-15,68,57,46,50,44,43,93,76,40,30.14,30.08,29.83,10,10,10,9,1,,0.00,0,,170
2013-3-16,77,68,59,55,46,43,73,51,40,29.82,29.79,29.72,10,10,10,10,9,18,0.00,0,,184
2013-3-17,64,54,44,55,47,41,93,74,67,29.77,29.73,29.67,10,10,7,17,9,23,0.00,4,,33
2013-3-18,57,49,41,45,41,36,100,89,63,30.04,29.74,29.65,10,7,5,17,4,22,0.00,3,Rain,26
2013-3-19,62,48,35,37,35,32,93,76,32,30.18,30.04,30.00,10,10,10,10,3,,0.00,0,,86
2013-3-20,53,45,37,37,34,30,81,63,47,30.33,30.21,30.04,10,10,10,10,7,,0.00,0,,28
2013-3-21,46,45,44,37,34,32,71,62,57,30.04,29.93,29.66,10,10,10,10,6,20,0.00,1,,118
2013-3-22,48,44,41,43,39,37,93,82,76,29.88,29.74,29.62,10,10,7,16,13,22,0.00,8,,58
2013-3-23,48,45,42,46,43,41,93,92,87,29.87,29.83,29.75,10,6,4,17,7,21,0.00,8,Thunderstorm,50
2013-3-24,41,38,33,39,33,21,93,84,56,30.21,29.95,29.86,10,10,10,22,16,32,0.00,7,,320
2013-3-25,48,36,24,23,21,18,86,67,30,30.40,30.27,30.21,10,10,10,20,7,28,0.00,0,,336
2013-3-26,40,30,21,24,20,16,93,77,50,30.43,30.40,30.29,10,10,10,7,1,,0.00,0,,359
2013-3-27,71,44,33,36,24,22,66,57,50,30.29,30.24,30.13,10,10,10,8,4,,0.00,0,,111
2013-3-28,73,57,45,52,40,36,76,62,49,30.20,30.14,30.12,10,10,10,16,6,21,0.00,1,,135
2013-3-29,77,68,59,58,54,52,83,68,47,30.14,30.10,30.00,10,10,7,20,9,26,0.00,5,,158
2013-3-30,81,62,55,58,54,51,85,74,60,30.01,29.98,29.90,10,10,10,25,9,34,0.00,1,Rain,192
2013-3-31,75,56,50,57,54,43,88,85,75,30.00,29.88,29.81,10,8,2,28,4,36,0.36,2,Rain-Thunderstorm,68